TimeEST,TemperatureF,Dew PointF,Humidity,Sea Level PressureIn,VisibilityMPH,Wind Direction,Wind SpeedMPH,Gust SpeedMPH,PrecipitationIn,Events,Conditions,WindDirDegrees,DateUTC
12:15 AM,64.4,64.4,100,30.11,10.0,WNW,4.6,-,N/A,,Scattered Clouds,290,2012-11-15 05:15:00
12:35 AM,66.2,64.4,94,30.10,10.0,WNW,5.8,-,N/A,,Mostly Cloudy,300,2012-11-15 05:35:00
12:55 AM,68.0,64.4,88,30.10,10.0,Calm,Calm,-,N/A,,Overcast,0,2012-11-15 05:55:00
1:15 AM,68.0,64.4,88,30.10,10.0,Calm,Calm,-,N/A,,Mostly Cloudy,0,2012-11-15 06:15:00
1:35 AM,68.0,64.4,88,30.09,10.0,WNW,3.5,-,N/A,,Overcast,300,2012-11-15 06:35:00
1:55 AM,66.2,64.4,94,30.08,7.0,WNW,3.5,-,N/A,,Mostly Cloudy,290,2012-11-15 06:55:00
2:15 AM,66.2,64.4,94,30.08,7.0,Calm,Calm,-,N/A,,Mostly Cloudy,0,2012-11-15 07:15:00
2:35 AM,68.0,66.2,94,30.08,10.0,NW,5.8,-,0.01,Rain,Light Rain,310,2012-11-15 07:35:00
2:55 AM,68.0,66.2,94,30.07,5.0,NW,6.9,-,0.10,Rain,Light Rain,320,2012-11-15 07:55:00
3:15 AM,68.0,66.2,94,30.07,10.0,Calm,Calm,-,N/A,,Overcast,0,2012-11-15 08:15:00
3:35 AM,68.0,66.2,94,30.07,10.0,Calm,Calm,-,N/A,,Mostly Cloudy,0,2012-11-15 08:35:00
3:55 AM,68.0,64.4,88,30.07,10.0,Calm,Calm,-,N/A,,Scattered Clouds,0,2012-11-15 08:55:00
4:15 AM,66.2,64.4,94,30.07,7.0,Calm,Calm,-,N/A,,Scattered Clouds,0,2012-11-15 09:15:00
4:35 AM,68.0,64.4,88,30.07,10.0,Calm,Calm,-,N/A,,Clear,0,2012-11-15 09:35:00
4:55 AM,64.4,64.4,100,30.07,1.2,West,3.5,-,N/A,,Mist,280,2012-11-15 09:55:00
5:15 AM,64.4,62.6,94,30.07,7.0,WNW,3.5,-,N/A,,Mostly Cloudy,300,2012-11-15 10:15:00
6:47 AM,64.4,64.4,100,30.07,7.0,Calm,Calm,-,N/A,,Scattered Clouds,0,2012-11-15 11:47:00
6:50 AM,64.4,62.6,94,30.12,0.5,NW,4.6,-,N/A,,Overcast,310,2012-11-15 11:50:00
7:47 AM,66.2,66.2,100,30.10,5.0,Calm,Calm,-,N/A,,Scattered Clouds,0,2012-11-15 12:47:00
9:47 AM,75.2,68.0,78,30.12,7.0,NNW,4.6,-,N/A,,Scattered Clouds,330,2012-11-15 14:47:00
12:47 PM,77.0,69.8,78,30.09,7.0,NNE,11.5,-,N/A,,Mostly Cloudy,20,2012-11-15 17:47:00
2:55 PM,75.2,68.0,78,30.07,7.0,North,11.5,16.1,N/A,,Scattered Clouds,360,2012-11-15 19:55:00
3:47 PM,73.4,66.2,78,30.07,7.0,North,13.8,-,N/A,,Scattered Clouds,360,2012-11-15 20:47:00
5:47 PM,71.6,66.2,83,30.08,7.0,North,9.2,16.1,N/A,,Mostly Cloudy,360,2012-11-15 22:47:00
6:47 PM,69.8,64.4,83,30.10,7.0,North,9.2,16.1,N/A,,Mostly Cloudy,360,2012-11-15 23:47:00
7:15 PM,69.8,64.4,83,30.10,10.0,North,9.2,-,N/A,,Clear,350,2012-11-16 00:15:00
7:35 PM,69.8,62.6,78,30.10,10.0,North,6.9,-,N/A,,Clear,350,2012-11-16 00:35:00
7:55 PM,68.0,64.4,88,30.11,10.0,North,5.8,-,N/A,,Clear,350,2012-11-16 00:55:00
8:15 PM,68.0,64.4,88,30.11,10.0,North,9.2,-,N/A,,Clear,350,2012-11-16 01:15:00
8:35 PM,68.0,64.4,88,30.12,10.0,NNW,5.8,-,N/A,,Clear,330,2012-11-16 01:35:00
8:55 PM,68.0,64.4,88,30.12,10.0,NNW,5.8,-,N/A,,Clear,340,2012-11-16 01:55:00
9:15 PM,66.2,62.6,88,30.12,10.0,NNW,8.1,-,N/A,,Clear,330,2012-11-16 02:15:00
9:35 PM,66.2,62.6,88,30.12,10.0,NNW,5.8,-,N/A,,Clear,340,2012-11-16 02:35:00
9:55 PM,66.2,62.6,88,30.11,10.0,NNW,6.9,-,N/A,,Clear,330,2012-11-16 02:55:00
10:15 PM,64.4,62.6,94,30.11,10.0,NNW,8.1,-,N/A,,Clear,330,2012-11-16 03:15:00
10:35 PM,64.4,62.6,94,30.11,10.0,NNW,6.9,-,N/A,,Clear,330,2012-11-16 03:35:00
10:55 PM,64.4,62.6,94,30.11,10.0,NNW,8.1,-,N/A,,Clear,340,2012-11-16 03:55:00
11:15 PM,64.4,62.6,94,30.11,10.0,NNW,6.9,-,N/A,,Clear,330,2012-11-16 04:15:00
11:35 PM,64.4,62.6,94,30.11,10.0,NW,6.9,-,N/A,,Clear,320,2012-11-16 04:35:00
11:55 PM,62.6,60.8,94,30.10,10.0,NNW,8.1,-,N/A,,Clear,330,2012-11-16 04:55:00